User: anonymous   Login
Location: Cueva de Ratón
(10.1013°N, 67.6606°W)
Time: 13:24:42
(UTC+00:00)
Language:

Meteor 2-6 Rocket - Orbit

View from above orbital plane
View from above orbital plane
View from above satellite
View from above satellite

Ground track
Ground track

The orbit data is extracted from the following two-line orbital elements,

1 11963U 80073B   24114.75288270  .00000378  00000-0  20244-3 0  9992
2 11963  81.2791 218.4654 0075086 191.7391 168.2033 14.09925381242864
Epoch (UTC): 23 April 2024 18:04:09
Eccentricity: 0.0075086
inclination: 81.2791°
perigee height: 805 km
apogee height: 914 km
right ascension of ascending node: 218.4654°
argument of perigee: 191.7391°
revolutions per day: 14.09925381
mean anomaly at epoch: 168.2033°
orbit number at epoch: 24286

The dashed part of the orbit path shows where the satellite is in the earth's shadow,  

DLR